Regional Weather Roundup
Issued by NWS

Home | Current Version | Previous Version | Text Only | Print | Product List | Glossary On
Versions: 1 2 3 4 5 6 7 8 9 10 11 12 13 14 15 16 17 18 19 20 21 22 23 24 25 26 27 28 29 30 31 32 33 34 35 36 37 38 39 40 41 42 43 44 45 46 47 48 49 50
000
ASUS45 KBOU 030807
RWRCO

WEATHER ROUNDUP FOR COLORADO
NATIONAL WEATHER SERVICE DENVER/BOULDER CO
200 AM MDT THU SEP 03 2015

NOTE: "FAIR" INDICATES FEW OR NO CLOUDS BELOW 12000 FEET WITH NO
SIGNIFICANT WEATHER AND/OR OBSTRUCTIONS TO VISIBILITY.

COZ001>005-013-030-031-030900-
...NORTHWEST COLORADO...

CITY           SKY/WX    TMP DP  RH WIND       PRES   REMARKS
CRAIG          PTCLDY    52  46  80 E3        30.12F
HAYDEN         NOT AVBL
MEEKER         PTCLDY    54  48  80 NE5       30.13F
MOUNT WERNER   NOT AVBL
STEAMBOAT SPGS PTCLDY    51  45  78 W3        30.18S
WALDEN         MOCLDY    46  37  71 SE8       30.25F
$$

COZ006>008-011-030900-
...WEST CENTRAL VALLEYS...

CITY           SKY/WX    TMP DP  RH WIND       PRES   REMARKS
GRAND JUNCTION MOCLDY    70  50  49 SE17      30.02S
MONTROSE       MOCLDY    67  48  50 SE10      30.14F
EAGLE          MOCLDY    57  46  67 CALM      30.20S
RIFLE          MOCLDY    61  53  75 S3        30.09F
DELTA          MOCLDY    65  51  61 N5        30.10F
NUCLA          MOCLDY    70  45  40 E5        30.18F
$$

COZ017>023-064>068-030900-
...SOUTHWEST COLORADO...

CITY           SKY/WX    TMP DP  RH WIND       PRES   REMARKS
DURANGO        CLOUDY    59  50  72 CALM      30.24F
CORTEZ         CLOUDY    62  57  83 NE5       30.16F
PAGOSA SPRINGS CLOUDY    58  46  64 CALM      30.31F
TELLURIDE      CLOUDY    57  45  64 CALM      30.38F
WOLF CREEK PAS NOT AVBL
$$

COZ009-010-012-014-032>034-037-058>063-030900-
...CENTRAL COLORADO...

CITY           SKY/WX    TMP DP  RH WIND       PRES   REMARKS
ASPEN          PTCLDY    54  44  69 SW8       30.25F
BUENA VISTA    PTCLDY    53  43  68 NW3       30.28F
COPPER MTN     PTCLDY    52  37  58 SW9       30.56F
BERTHOUD PASS  FAIR      43  32  65 W20G25    30.60S
COTTONWOOD PAS PTCLDY    55  37  50 NW3       30.41F
GUNNISON       PTCLDY    50  45  81 N6        30.33F
KREMMLING      PTCLDY    52  43  71 CALM      30.25S
LEADVILLE      PTCLDY    43  41  93 NE5       30.40F
MONARCH PASS   MOCLDY    45  36  70 SW18      30.65F
SALIDA         PTCLDY    64  44  49 N5        30.32F
SUNLIGHT       PTCLDY    50  43  76 CALM      30.48F
WILKERSON PASS PTCLDY    48  34  57 SW9G16    30.52F
$$

COZ069>075-030900-
...SAN LUIS VALLEY/SANGRE DE CRISTO MOUNTAINS...

CITY           SKY/WX    TMP DP  RH WIND       PRES   REMARKS
ALAMOSA        MOCLDY    54  49  83 CALM      30.27F
LA VETA PASS   MOCLDY    46  37  71 MISG      30.40F
SAGUACHE       MOCLDY    50  43  76 N6        30.32F
$$

COZ035-036-038>040-030900-
...NORTHERN COLORADO FRONT RANGE...

CITY           SKY/WX    TMP DP  RH WIND       PRES   REMARKS
DENVER INTL AP PTCLDY    70  42  36 SW13      30.01F
DMNS CITY PARK   N/A     68  45  44 E7        30.01F
AURORA         MOCLDY    67  44  42 SW9       30.04F
FRONT RANGE AP NOT AVBL
ERIE MUNI ARPT PTCLDY    61  47  60 S3        30.00S
BOULDER MUN AP PTCLDY    70  41  35 S5        30.01S
CENTENNIAL     PTCLDY    68  42  38 SW9       30.05F
BROOMFIELD     PTCLDY    68  41  37 W5        30.04F
FORT COLLINS   PTCLDY    64  45  48 N3        30.00F
LONGMONT       PTCLDY    61  49  64 NW3       30.01F
$$

COZ041-046-047-076>085-087-088-030900-
...PIKES PEAK/PALMER DIVIDE AND SOUTHERN FOOTHILLS...

CITY           SKY/WX    TMP DP  RH WIND       PRES   REMARKS
COLO. SPRINGS  MOCLDY    65  45  48 N6        30.09F
A. F. ACADEMY  MOCLDY    60  43  51 VRB1      30.11F
ELLICOTT       PTCLDY   N/A N/A N/A CALM      30.08F
FALCON         PTCLDY    64  42  44 MISG      30.15F
FORT CARSON    PTCLDY    65  46  50 N9        30.05F
LIMON          PTCLDY    54  46  74 CALM      30.03F
MONUMENT HILL  PTCLDY    61  37  41 SW9       30.16S
TRINIDAD       MOCLDY    68  47  46 W9        30.07F
$$

COZ042>045-048>051-090-091-030900-
...NORTHEAST COLORADO...

CITY           SKY/WX    TMP DP  RH WIND       PRES   REMARKS
GREELEY ARPT   PTCLDY    57  48  72 N7        29.98F
AKRON          PTCLDY    69  39  33 SW3       29.96F
BURLINGTON     MOCLDY    62  52  69 W9        29.93F
WRAY           CLOUDY    63  50  63 W8        29.89F
STERLING       PTCLDY    57  48  72 CALM      29.92F
HOLYOKE        PTCLDY    63  59  88 N3        29.89F
FORT MORGAN    PTCLDY    64  43  46 W6        29.96F
$$

COZ086-089-092>099-030900-
...SOUTHEAST COLORADO...

CITY           SKY/WX    TMP DP  RH WIND       PRES   REMARKS
PUEBLO         MOCLDY    70  44  39 CALM      29.97F
LA JUNTA       PTCLDY    77  47  34 SW15      29.93F
LAMAR          PTCLDY    67  50  54 SW6       29.89F
SPRINGFIELD      N/A     66  53  63 SW7       29.97F
$$




USA.gov is the U.S. government's official web portal to all federal, state and local government web resources and services.